Date String (YYYY-MM-DD hh:mm:ss) UTC,Instrument flags,Ambient pressure (hPa),Sample flow (lpm),Bypass flow (lpm),Sample temperature (°C),Ambient temperature (°C),ASC tube jacket temperature (°C),LED temperature (°C),Box temperature (°C),Sample RH (%),Span deviation,Mass concentration (μg/m³),Mass concentration (μg/m³),Mass concentration (μg/m³)
DateTimeUTC,F1_M11,P_M11,Q1_M11,Q2_M11,T1_M11,T2_M11,T3_M11,T4_M11,T5_M11,U1_M11,ZSPAN_M11,X0_M11,X2_M11,X1_M11
2021-10-16 15:00:00,,0835.0,5.00,0.00,25.3,24.5,00.0,34.2,27.2,10.5,0000.0,0007.86,0003.41,0002.87
2021-10-16 15:01:00,,0835.0,5.01,0.00,25.3,24.5,00.0,34.2,27.2,10.5,0000.0,0007.68,0003.42,0002.87
2021-10-16 15:02:00,,0835.0,4.99,0.00,25.3,24.5,00.0,34.2,27.2,10.1,0000.0,0007.66,0003.44,0002.92
2021-10-16 15:03:00,,0835.0,5.01,0.00,25.3,24.5,00.0,34.3,27.2,10.5,0000.0,0007.69,0003.47,0002.95
2021-10-16 15:04:00,,0835.0,4.99,0.00,25.3,24.6,00.0,34.3,27.3,09.8,0000.0,0007.88,0003.48,0003.01
2021-10-16 15:05:00,,0835.0,5.02,0.00,25.3,24.6,00.0,34.3,27.3,10.4,0000.0,0007.40,0003.49,0003.04
2021-10-16 15:06:00,,0834.9,4.99,0.00,25.4,24.6,00.0,34.3,27.3,10.4,0000.0,0007.09,0003.47,0003.04
2021-10-16 15:07:00,,0835.0,5.01,0.00,25.4,24.6,00.0,34.3,27.3,10.2,0000.0,0006.99,0003.45,0003.03
2021-10-16 15:08:00,,0835.0,4.99,0.00,25.4,24.6,00.0,34.3,27.3,10.1,0000.0,0007.63,0003.46,0003.04
2021-10-16 15:09:00,,0835.0,5.00,0.00,25.4,24.6,00.0,34.3,27.3,10.3,0000.0,0007.66,0003.45,0003.06
2021-10-16 15:10:00,,0835.1,5.01,0.00,25.4,24.7,00.0,34.4,27.4,10.2,0000.0,0007.55,0003.45,0003.07
2021-10-16 15:11:00,,0835.1,5.00,0.00,25.4,24.7,00.0,34.4,27.4,10.4,0000.0,0007.42,0003.45,0003.06
2021-10-16 15:12:00,,0835.0,4.99,0.00,25.5,24.7,00.0,34.4,27.4,10.4,0000.0,0007.42,0003.46,0003.04
2021-10-16 15:13:00,,0835.0,5.01,0.00,25.5,24.7,00.0,34.4,27.4,10.3,0000.0,0007.53,0003.45,0003.00
2021-10-16 15:14:00,,0835.0,4.99,0.00,25.5,24.7,00.0,34.4,27.4,10.4,0000.0,0007.40,0003.42,0002.97
2021-10-16 15:15:00,,0835.0,5.00,0.00,25.5,24.8,00.0,34.4,27.4,10.5,0000.0,0007.62,0003.44,0002.93
2021-10-16 15:16:00,,0835.0,5.01,0.00,25.5,24.8,00.0,34.5,27.5,10.5,0000.0,0007.96,0003.46,0002.88
2021-10-16 15:17:00,,0835.1,4.99,0.00,25.5,24.8,00.0,34.5,27.5,10.5,0000.0,0008.07,0003.49,0002.89
2021-10-16 15:18:00,,0835.1,5.00,0.00,25.6,24.8,00.0,34.5,27.5,10.6,0000.0,0008.18,0003.51,0002.88
2021-10-16 15:19:00,,0835.1,4.99,0.00,25.6,24.8,00.0,34.5,27.5,10.6,0000.0,0007.69,0003.52,0002.85
2021-10-16 15:20:00,,0835.1,5.00,0.00,25.6,24.8,00.0,34.5,27.5,10.4,0000.0,0007.54,0003.52,0002.83
2021-10-16 15:21:00,,0835.0,4.99,0.00,25.6,24.8,00.0,34.6,27.5,10.6,0000.0,0007.49,0003.50,0002.82
2021-10-16 15:22:00,,0835.0,5.00,0.00,25.6,24.9,00.0,34.6,27.5,10.6,0000.0,0007.57,0003.50,0002.80
2021-10-16 15:23:00,,0835.1,5.00,0.00,25.6,24.9,00.0,34.6,27.6,10.5,0000.0,0007.47,0003.47,0002.79
2021-10-16 15:24:00,,0835.0,5.01,0.00,25.7,24.9,00.0,34.6,27.6,10.3,0000.0,0007.40,0003.47,0002.77
2021-10-16 15:25:00,,0835.1,4.99,0.00,25.7,24.9,00.0,34.6,27.6,10.4,0000.0,0007.31,0003.45,0002.74
2021-10-16 15:26:00,,0835.1,4.99,0.00,25.7,25.0,00.0,34.6,27.6,10.4,0000.0,0006.71,0003.42,0002.72
2021-10-16 15:27:00,,0835.1,4.99,0.00,25.7,25.0,00.0,34.6,27.6,10.4,0000.0,0006.14,0003.39,0002.73
2021-10-16 15:28:00,,0835.1,5.01,0.00,25.7,25.0,00.0,34.7,27.6,10.4,0000.0,0006.18,0003.39,0002.75
2021-10-16 15:29:00,,0835.0,4.99,0.00,25.7,25.0,00.0,34.7,27.7,10.4,0000.0,0006.35,0003.41,0002.78
2021-10-16 15:30:00,,0835.1,5.01,0.00,25.8,25.0,00.0,34.7,27.7,10.4,0000.0,0006.41,0003.43,0002.82
2021-10-16 15:31:00,,0835.1,5.01,0.00,25.8,25.0,00.0,34.7,27.7,10.4,0000.0,0006.40,0003.45,0002.86
2021-10-16 15:32:00,,0835.1,4.99,0.00,25.8,25.1,00.0,34.7,27.7,10.4,0000.0,0007.25,0003.46,0002.91
2021-10-16 15:33:00,,0835.1,5.00,0.00,25.8,25.1,00.0,34.7,27.8,10.4,0000.0,0007.48,0003.49,0002.99
2021-10-16 15:34:00,,0835.1,5.00,0.00,25.8,25.1,00.0,34.8,27.8,10.5,0000.0,0007.51,0003.54,0003.07
2021-10-16 15:35:00,,0835.1,4.99,0.00,25.8,25.1,00.0,34.8,27.8,10.5,0000.0,0007.55,0003.57,0003.14
2021-10-16 15:36:00,,0835.1,5.00,0.00,25.9,25.1,00.0,34.8,27.8,10.4,0000.0,0007.83,0003.66,0003.17
2021-10-16 15:37:00,,0835.1,5.01,0.00,25.9,25.2,00.0,34.8,27.8,10.3,0000.0,0007.85,0003.70,0003.22
2021-10-16 15:38:00,,0835.2,5.00,0.00,25.9,25.2,00.0,34.8,27.8,10.2,0000.0,0007.98,0003.77,0003.25
2021-10-16 15:39:00,,0835.1,5.00,0.00,25.9,25.2,00.0,34.8,27.9,10.3,0000.0,0008.04,0003.80,0003.27
2021-10-16 15:40:00,,0835.1,5.01,0.00,25.9,25.2,00.0,34.9,27.9,10.4,0000.0,0007.91,0003.83,0003.32
2021-10-16 15:41:00,,0835.1,4.99,0.00,26.0,25.2,00.0,34.9,27.9,10.3,0000.0,0007.99,0003.84,0003.35
2021-10-16 15:42:00,,0835.1,5.01,0.00,26.0,25.3,00.0,34.9,27.9,10.2,0000.0,0007.96,0003.83,0003.37
2021-10-16 15:43:00,,0835.1,5.00,0.00,26.0,25.3,00.0,34.9,27.9,10.2,0000.0,0007.53,0003.86,0003.39
2021-10-16 15:44:00,,0835.0,4.99,0.00,26.0,25.3,00.0,34.9,28.0,10.3,0000.0,0007.24,0003.89,0003.41
2021-10-16 15:45:00,,0835.1,5.01,0.00,26.0,25.3,00.0,35.0,28.0,10.3,0000.0,0007.48,0003.89,0003.42
2021-10-16 15:46:00,,0835.1,4.99,0.00,26.0,25.3,00.0,35.0,28.0,10.3,0000.0,0007.75,0003.91,0003.44
2021-10-16 15:47:00,,0835.1,5.01,0.00,26.1,25.3,00.0,35.0,28.0,10.2,0000.0,0007.64,0003.90,0003.45
2021-10-16 15:48:00,,0835.0,4.99,0.00,26.1,25.4,00.0,35.0,28.0,10.2,0000.0,0007.66,0003.88,0003.46
2021-10-16 15:49:00,,0835.1,5.02,0.00,26.1,25.4,00.0,35.0,28.0,10.1,0000.0,0007.87,0003.88,0003.47
2021-10-16 15:50:00,,0835.1,4.99,0.00,26.1,25.4,00.0,35.0,28.1,10.2,0000.0,0008.43,0003.89,0003.48
2021-10-16 15:51:00,,0835.1,5.00,0.00,26.1,25.4,00.0,35.1,28.1,10.6,0000.0,0008.61,0003.92,0003.48
2021-10-16 15:52:00,,0835.2,5.02,0.00,26.2,25.5,00.0,35.1,28.1,10.6,0000.0,0008.60,0003.97,0003.51
2021-10-16 15:53:00,,0835.2,4.99,0.00,26.2,25.5,00.0,35.1,28.1,10.4,0000.0,0008.70,0004.02,0003.54
2021-10-16 15:54:00,,0835.2,5.01,0.00,26.2,25.5,00.0,35.1,28.1,10.9,0000.0,0009.10,0004.10,0003.61
2021-10-16 15:55:00,,0835.2,5.00,0.00,26.2,25.5,00.0,35.1,28.2,11.1,0000.0,0009.55,0004.19,0003.69
2021-10-16 15:56:00,,0835.2,5.00,0.00,26.2,25.5,00.0,35.1,28.2,10.9,0000.0,0009.90,0004.28,0003.74
2021-10-16 15:57:00,,0835.1,5.00,0.00,26.3,25.5,00.0,35.2,28.2,10.9,0000.0,0009.74,0004.31,0003.78
2021-10-16 15:58:00,,0835.2,4.99,0.00,26.3,25.5,00.0,35.2,28.2,11.2,0000.0,0009.64,0004.37,0003.85
2021-10-16 15:59:00,,0835.2,5.01,0.00,26.3,25.6,00.0,35.2,28.2,11.0,0000.0,0009.66,0004.47,0003.91
